Tracking 19831 objects as of 23-Aug-2019
HD Live streaming from Space Station
objects crossing your sky now

UNITE

Track UNITE now!
10-day predictions


NORAD ID: 44031
Int'l Code: 1998-067PX
Perigee: 403.2 km
Apogee: 408.0 km
Inclination: 51.6 °
Period: 92.5 minutes
Semi major axis: 6776 km
RCS: Unknown
Launch date: November 20, 1998
Source: United States (US)
Launch site: TYURATAM MISSILE AND SPACE COMPLEX (TTMTR)
aabbcc
Your satellite tracking list
Your tracking list is empty




NASA's NSSDC Master Catalog

Two Line Element Set (TLE):
1 44031U 98067PX  19235.08822592  .00004344  00000-0  67482-4 0  9994
2 44031  51.6401  24.5715 0003490  34.0192 326.1022 15.56275554 31724
Source of the keplerian elements: AFSPC